Location: Betra
(48.4113°N, 8.6634°E)
Time: 15:49:54
(UTC+00:00)

Cosmos 1741 Rocket - Pass Details

Date: 23 May 2024
Orbit: 758 x 781 km, 74.0° (Epoch: 16 June)

Event Time Altitude Azimuth Distance (km) Brightness Sun altitude
Exits shadow 01:51:21 20° 216° (SW) 1,735 5.2 -13.3°
Maximum altitude 01:55:01 66° 296° (WNW) 837 4.1 -13.0°
Drops below altitude 10° 02:00:16 10° 18° (NNE) 2,324 7.7 -12.4°
Sets 02:02:42 0° 22° (NNE) 3,259 8.9 -12.2°
